Location: Recife
(8.0585°S, 34.8848°W)
Time: 20:24:02
(UTC-03:00)

Explorer 11/Cluster Stage 4 - Pass Details

Date: 18 April 2026
Orbit: 463 x 1174 km, 28.8° (Epoch: 16 May)

Event Time Altitude Azimuth Distance (km) Brightness Sun altitude
Rises 05:40:50 0° 258° (WSW) 2,729 8.7 3.8°
Reaches altitude 10° 05:43:07 10° 269° (W) 1,921 8.0 4.4°
Maximum altitude 05:47:06 31° 332° (NNW) 1,156 7.4 5.3°
Drops below altitude 10° 05:51:51 10° 34° (NE) 2,305 9.8 6.5°
Sets 05:54:51 0° 44° (NE) 3,373 10.9 7.2°
